STARLINK-11291 [DTC] (61208 NORAD) Tracking and Keplerian Element Data

This shows tracking and keplerian element data for the satellite.

Feedback or suggestion? Click here.




ElementValue
Catalog61208
NameSTARLINK-11291 [DTC]
Epoch Orbit370
Epoch Day285.98132377
Epoch Year2024
RAAN189.501
Inclination53.1575
Eccentricity0.0001379
Argument of Perigee97.2337
Mean Anonmoly262.8841
Mean Motion15.76642389
Decay Rate-0.00034826
L11 61208U 24171J 24285.98132377 -.00034826 00000+0 -21045-3 0 9992
L22 61208 53.1575 189.5010 0001379 97.2337 262.8841 15.76642389 3702



Live tracking and technical data element details for STARLINK-11291 [DTC] (NORAD 61208). STARLINK-11291 [DTC] can be tracked NOW for your location showing map with azimuth and elevation plus other details from your city location.







IsCatalogInMostPopularTable: catalog: 61208, numindb: 20
Update: records affected: 1



GetName: 61208 STARLINK-11291 [DTC]

Hit Count: updated at: Wed, 04 Dec 2024 08:47:01 GMT